Torna al catalogo

SL-14 DEB

AttivoPO
NORAD 26020·DEBRIS·🇷🇺 Russia

Lanciato Sep 28, 1991 da Plesetsk Cosmodrome

Loading…

Prossimi Passaggi (prossime 24 ore)

TLE

AggiornatoSource: Space-Track

Epoca: Sep 13, 2026, 23:48 UTC

1 26020U 91068AF  26256.99188738  .00001441  00000-0  66642-2 0  9994
2 26020  82.7294  83.5254 0013728   6.6335 148.1033 12.75743794608457

Traccia SL-14 DEB in tempo reale con AllMySat

Download on the App Store